Weather History for Waco, TX

Change the Weather History Date:

Friday, June 21, 2013

  Actual Average Record
Temperature  
Mean Temperature 86 °F 82 °F  
Max Temperature 97 °F 93 °F 107 °F (1936)
Min Temperature 75 °F 72 °F 57 °F (1976)
Degree Days  
Heating Degree Days 0 0  
Month to date heating degree days 0 0  
Since 1 June heating degree days 0 0  
Since 1 July heating degree days 2023 2142  
Cooling Degree Days 21 17  
Month to date cooling degree days 349 325  
Year to date cooling degree days 766 777  
Since 1 June cooling degree days 349 325  
Growing Degree Days 36 (Base 50)    
Moisture  
Dew Point 68 °F    
Average Humidity 60    
Maximum Humidity 87    
Minimum Humidity 33    
Precipitation  
Precipitation 0.00 in 0.10 in 1.51 in (1904)
Month to date precipitation 1.62 2.68  
Year to date precipitation 15.71 17.57  
Sea Level Pressure  
Sea Level Pressure 30.01 in    
Wind  
Wind Speed 13 mph (South)    
Max Wind Speed 21 mph    
Max Gust Speed 26 mph    
Visibility 10 miles    
Events      
T = Trace of Precipitation, MM = Missing Value Source: NWS Daily Summary

Daily Weather History Graph

Daily Weather History Graph

Search for Another Location

Airport:

Trip Planner

Search our weather history database for the weather conditions in past years. The results will help you decide how hot, cold, wet, or windy it might be!

Date:

Astronomy

Jun. 21, 2013 Rise Set
Actual Time 6:24 AM CDT 8:37 PM CDT
Civil Twilight 5:56 AM CDT 9:05 PM CDT
Nautical Twilight 5:21 AM CDT 9:39 PM CDT
Astronomical Twilight 4:44 AM CDT 10:16 PM CDT
Moon 6:53 PM CDT (6/21) 4:35 AM CDT (6/21)
Length of Visible Light 15h 09m
Length of Day
14h 12m
Waxing Gibbous, 95% of the Moon is Illuminated
Jun 21
Waxing Gibbous
Jun 23
Full
Jun 29
Last Quarter
Jul 8
New
Jul 15
First Quarter

Hourly Weather History & Observations

Time (CDT) Temp. Heat Index Dew Point Humidity Pressure Visibility Wind Dir Wind Speed Gust Speed Precip Events Conditions
12:51 AM 82.9 °F 85.4 °F 66.9 °F 58% 30.00 in 10.0 mi South 18.4 mph - N/A   Clear
1:51 AM 81.0 °F 84.1 °F 69.1 °F 67% 30.00 in 10.0 mi South 12.7 mph 20.7 mph N/A   Clear
2:51 AM 79.0 °F - 70.0 °F 74% 30.00 in 10.0 mi South 12.7 mph - N/A   Clear
3:51 AM 77.0 °F - 70.0 °F 79% 30.00 in 10.0 mi South 13.8 mph - N/A   Clear
4:51 AM 75.9 °F - 72.0 °F 87% 30.01 in 9.0 mi South 9.2 mph - N/A   Clear
5:51 AM 75.9 °F - 72.0 °F 87% 30.01 in 9.0 mi South 9.2 mph - N/A   Clear
6:51 AM 75.9 °F - 72.0 °F 87% 30.03 in 7.0 mi South 12.7 mph - N/A   Clear
7:51 AM 77.0 °F - 72.0 °F 84% 30.04 in 8.0 mi South 12.7 mph - N/A   Partly Cloudy
8:25 AM 78.8 °F - 71.6 °F 78% 30.07 in 8.0 mi South 12.7 mph - N/A   Mostly Cloudy
8:51 AM 80.1 °F 83.8 °F 72.0 °F 76% 30.05 in 8.0 mi South 13.8 mph - N/A   Overcast
9:51 AM 84.9 °F 90.1 °F 71.1 °F 63% 30.06 in 10.0 mi SSW 16.1 mph 21.9 mph N/A   Mostly Cloudy
10:04 AM 84.2 °F 88.4 °F 69.8 °F 62% 30.09 in 10.0 mi South 16.1 mph - N/A   Partly Cloudy
10:51 AM 87.1 °F 92.0 °F 70.0 °F 57% 30.06 in 10.0 mi South 16.1 mph - N/A   Clear
11:51 AM 90.0 °F 94.5 °F 69.1 °F 50% 30.06 in 10.0 mi South 13.8 mph 21.9 mph N/A   Partly Cloudy
12:51 PM 93.0 °F 97.9 °F 69.1 °F 45% 30.05 in 10.0 mi South 13.8 mph - N/A   Clear
1:51 PM 95.0 °F 99.0 °F 66.9 °F 40% 30.04 in 10.0 mi South 12.7 mph 21.9 mph N/A   Clear
2:51 PM 95.0 °F 97.4 °F 64.9 °F 37% 30.01 in 10.0 mi South 16.1 mph 26.5 mph N/A   Clear
3:51 PM 96.1 °F 98.8 °F 64.9 °F 36% 30.00 in 10.0 mi South 16.1 mph - N/A   Clear
4:51 PM 97.0 °F 98.3 °F 63.0 °F 32% 29.97 in 10.0 mi South 12.7 mph 23.0 mph N/A   Clear
5:51 PM 97.0 °F 97.8 °F 62.1 °F 31% 29.95 in 10.0 mi South 13.8 mph - N/A   Clear
6:51 PM 93.9 °F 95.2 °F 63.0 °F 36% 29.94 in 10.0 mi South 15.0 mph - N/A   Clear
7:51 PM 91.9 °F 92.9 °F 63.0 °F 38% 29.94 in 10.0 mi SSE 11.5 mph - N/A   Clear
8:51 PM 90.0 °F 90.6 °F 63.0 °F 40% 29.94 in 10.0 mi SE 13.8 mph - N/A   Clear
9:51 PM 88.0 °F 89.3 °F 64.0 °F 45% 29.95 in 10.0 mi SE 10.4 mph - N/A   Clear
10:51 PM 86.0 °F 87.3 °F 64.0 °F 48% 29.96 in 10.0 mi SE 16.1 mph - N/A   Clear
11:51 PM 84.9 °F 86.1 °F 64.0 °F 49% 29.98 in 10.0 mi South 15.0 mph - N/A   Clear